PALISADE (44634 NORAD) Tracking and Keplerian Element Data
This shows tracking and keplerian element data for the satellite.
Feedback or suggestion? Click here.
Element | Value |
Catalog | 44634 |
Name | PALISADE |
Epoch Orbit | 371 |
Epoch Day | 318.30686276 |
Epoch Year | 2019 |
RAAN | 37.99 |
Inclination | 87.897 |
Eccentricity | 0.0010641 |
Argument of Perigee | 55.0744 |
Mean Anonmoly | 305.1383 |
Mean Motion | 13.11819199 |
Decay Rate | 2.91E-06 |
L1 | 1 44634U 19069A 19318.30686276 .00000291 00000-0 78148-3 0 9999 |
L2 | 2 44634 87.8970 37.9900 0010641 55.0744 305.1383 13.11819199 3714 |
Live tracking and technical data element details for PALISADE (NORAD 44634). PALISADE can be tracked NOW for your location showing map with azimuth and elevation plus other details from your city location.
Track the satellite on the map from your city or location and see movement details for azimuth, elevation, latitude, longitude, range, height, and movement on the map or in text.
IsCatalogInMostPopularTable: catalog: 44634, numindb: 15
Update: records affected: 1
GetName: 44634 PALISADE
Hit Count: updated at: Thu, 05 Dec 2019 17:58:03 GMT